Location: Eurasberg
(48.3353°N, 11.0839°E)
Time: 07:01:00
(UTC+00:00)

BREEZE-M DEB (TANK) - Pass Details

Date: 18 January 2026
Orbit: 290 x 14651 km, 49.5° (Epoch: 10 February)

Event Time Altitude Azimuth Distance (km) Brightness Sun altitude
Exits shadow 03:54:12 61° 243° (WSW) 1,650 4.3 -30.3°
Maximum altitude 03:54:56 63° 217° (SW) 1,491 4.1 -30.2°
Drops below altitude 10° 03:59:35 10° 136° (SE) 2,212 5.9 -29.4°
Sets 04:00:59 0° 132° (SE) 2,790 6.6 -29.2°
